Bonaire, Netherlands

11:18 PM AST on July 20, 2017 (GMT -0400)
Flamingo

Weather History for TNCB - August, 2013

Change the Weather History Date:

Tuesday, August 13, 2013

  Actual Average Record
Temperature  
Mean Temperature 84 °F -  
Max Temperature 87 °F 88 °F 92 °F (2012)
Min Temperature 82 °F 81 °F 75 °F (2010)
Cooling Degree Days 20    
Growing Degree Days 34 (Base 50)    
Moisture  
Dew Point 77 °F    
Average Humidity 78    
Maximum Humidity 84    
Minimum Humidity 66    
Precipitation  
Precipitation 0.00 in - - ()
Sea Level Pressure  
Sea Level Pressure 29.87 in    
Wind  
Wind Speed 15 mph ()    
Max Wind Speed 20 mph    
Max Gust Speed -    
Visibility 6.2 miles    
Events      
Averages and records for this station are not official NWS values.
T = Trace of Precipitation, MM = Missing Value Source: Averaged Metar Reports

Daily Weather History Graph

Daily Weather History Graph

Search for Another Location

Airport or City:

Trip Planner

Search our weather history database for the weather conditions in past years. The results will help you decide how hot, cold, wet, or windy it might be!

Date:

Astronomy

Aug. 13, 2013 Rise Set
Actual Time 6:21 AM AST 6:54 PM AST
Civil Twilight 5:59 AM AST 7:15 PM AST
Nautical Twilight 5:33 AM AST 7:41 PM AST
Astronomical Twilight 5:08 AM AST 8:07 PM AST
Moon 11:52 AM AST (8/13) 11:49 PM AST (8/13)
Length of Visible Light 13h 16m
Length of Day
12h 32m
Waxing Crescent, 41% of the Moon is Illuminated
Aug 13
Waxing Crescent
Aug 14
First Quarter
Aug 20
Full
Aug 28
Last Quarter
Sep 5
New

Hourly Weather History & Observations

Time (AST) Temp. Heat Index Dew Point Humidity Pressure Visibility Wind Dir Wind Speed Gust Speed Precip Events Conditions
12:55 AM 82.4 °F 90.9 °F 77.0 °F 84% 29.89 in - East 16.1 mph - N/A   Unknown
1:55 AM 82.4 °F 90.9 °F 77.0 °F 84% 29.86 in - East 17.3 mph - N/A   Unknown
2:55 AM 82.4 °F 90.9 °F 77.0 °F 84% 29.86 in - East 16.1 mph - N/A   Unknown
3:55 AM 82.4 °F 90.9 °F 77.0 °F 84% 29.86 in 6.2 mi East 16.1 mph - N/A   Scattered Clouds
4:55 AM 82.4 °F 89.5 °F 75.2 °F 79% 29.86 in - East 13.8 mph - N/A   Unknown
5:55 AM 82.4 °F 89.5 °F 75.2 °F 79% 29.86 in - East 15.0 mph - N/A   Unknown
6:55 AM 82.4 °F 90.9 °F 77.0 °F 84% 29.86 in - East 13.8 mph - N/A   Unknown
8:00 AM 82.4 °F 89.5 °F 75.2 °F 79% 29.89 in 6.2 mi East 17.3 mph - N/A   Scattered Clouds
9:00 AM 84.2 °F 94.1 °F 77.0 °F 79% 29.92 in 6.2 mi East 17.3 mph - N/A   Scattered Clouds
10:00 AM 84.2 °F 94.1 °F 77.0 °F 79% 29.92 in 6.2 mi East 17.3 mph - N/A   Mostly Cloudy
11:00 AM 86.0 °F 96.9 °F 77.0 °F 74% 29.92 in 6.2 mi East 19.6 mph - N/A   Scattered Clouds
12:00 PM 87.8 °F 97.6 °F 75.2 °F 66% 29.92 in 6.2 mi East 19.6 mph - N/A   Scattered Clouds
1:00 PM 87.8 °F 97.6 °F 75.2 °F 66% 29.89 in 6.2 mi East 18.4 mph - N/A   Scattered Clouds
1:55 PM 87.8 °F 97.6 °F 75.2 °F 66% 29.89 in - East 19.6 mph - N/A   Unknown
3:00 PM 86.0 °F 96.9 °F 77.0 °F 74% 29.86 in 6.2 mi East 16.1 mph - N/A   Scattered Clouds
4:00 PM 86.0 °F 96.9 °F 77.0 °F 74% 29.83 in 6.2 mi East 13.8 mph - N/A   Scattered Clouds
4:55 PM 84.2 °F 94.1 °F 77.0 °F 79% 29.83 in 6.2 mi East 17.3 mph - N/A   Scattered Clouds
6:00 PM 84.2 °F 94.1 °F 77.0 °F 79% 29.83 in 6.2 mi East 15.0 mph - N/A   Scattered Clouds
7:00 PM 84.2 °F 94.1 °F 77.0 °F 79% 29.83 in 6.2 mi ENE 17.3 mph - N/A   Partly Cloudy
8:00 PM 82.4 °F 90.9 °F 77.0 °F 84% 29.86 in 6.2 mi ENE 18.4 mph - N/A   Partly Cloudy
8:55 PM 82.4 °F 90.9 °F 77.0 °F 84% 29.86 in - ENE 17.3 mph - N/A   Unknown
9:55 PM 82.4 °F 90.9 °F 77.0 °F 84% 29.89 in - ENE 16.1 mph - N/A   Unknown